sat.trackr.live / text

‹ back to catalog

STARLINK-32884

NORAD 62953 · 2025-029F

PAYLOAD ACTIVE UNKNOWN

§ Identity

Operator
Country
US
Launch date
2025-02-11
Launch site
AFWTR
Launch vehicle
Mass (kg)
RCS (m²)

Purposes: comms

External: N2YO · Heavens-Above · Gunter

§ Orbital elements

Epoch: 2026-05-24T23:27:13.053024Z

Period
93.85 min
Inclination
53.1601°
Eccentricity
0.0001116
Mean motion
15.34398333 rev/d
Perigee alt
461.9 km
Apogee alt
463.5 km
Semi-major
6,840.8 km
B*
6.3902e-4
RAAN
235.5511°
Arg perigee
70.6084°
Mean anomaly
289.5039°
Rev number
7,304

§ Raw data

STARLINK-328841 62953U 25029F   26144.97723441  .00021274  00000+0  63902-3 0  99952 62953  53.1601 235.5511 0001116  70.6084 289.5039 15.34398333 73041

JSON: /api/v1/satellites/62953 · /tle

For live sub-satellite position, see the globe view (requires WebGL).

§ Visibility from observer

Set your observer location to see the next 7 days of passes ≥ 10°. The values pass through the URL so the page stays shareable.

No JS? Fill the form by hand. The geolocation button needs JavaScript.